Regional Weather Roundup
Issued by NWS

Home | Current Version | Previous Version | Graphics & Text | Print | Product List | Glossary On
Versions: 1 2 3 4 5 6 7 8 9 10 11 12 13 14 15 16 17 18 19 20 21 22 23 24 25 26 27 28 29 30 31 32 33 34 35 36 37 38 39 40 41 42 43 44 45 46 47 48 49 50
000
ASUS43 KIND 230009
RWRIN

WEATHER ROUNDUP FOR INDIANA
NATIONAL WEATHER SERVICE INDIANAPOLIS IN
800 PM EDT WED MAR 22 2017

NOTE: "FAIR" INDICATES FEW OR NO CLOUDS BELOW 12,000 FEET WITH NO
SIGNIFICANT WEATHER AND/OR OBSTRUCTIONS TO VISIBILITY.

* - STATION DOES NOT REPORT WEATHER SUCH AS PRECIPITATION OR FOG.

+ - STATION NOT QUALITY CONTROLLED BY THE NATIONAL WEATHER SERVICE.
    USE DATA WITH CAUTION...ESPECIALLY DEWPOINT AND RELATIVE
    HUMIDITY OBSERVATIONS.

INZ001>003-010>013-019-020-230100-
NORTHWEST INDIANA

CITY           SKY/WX    TMP DP  RH WIND       PRES   REMARKS
GARY /AIRPORT/ MOCLDY    32  19  59 NE9       30.52F WCI  24
KNOX *+        CLOUDY    34  -9  15 E7        30.50R WCI  28
LA PORTE +     CLOUDY    32  20  63 N8        30.51R WCI  24
6HR MIN TEMP:  32; 6HR MAX TEMP:  38;

MICHIGAN CITY+ CLOUDY    30  21  69 N5        30.52S WCI  25
MONTICELLO +   CLOUDY    36  16  44 NE8       30.48R
6HR MIN TEMP:  33; 6HR MAX TEMP:  39;

RENSSELAER +     N/A     36  18  48 E9        30.48S
VALPARAISO     CLOUDY    32  21  64 N6        30.50R WCI  26
6HR MIN TEMP:  32; 6HR MAX TEMP:  40;


$$

LMZ046-743>745-230100-
SOUTHERN LAKE MICHIGAN

STATION/POSITION TIME  TEMP    WIND        PRES    WAVE
                       AIR SEA DIR/SP/G            HT
                 (UTC) (F)     (DEG/KT/KT) (MB)    (FT)
BURNS HARBOR     2340   31      50/ 12/ 13 1033.5S
MICHIGAN CITY    2340   30      30/ 13/ 15   N/A

$$

INZ004-005-014>016-021>024-230100-
NORTH CENTRAL INDIANA

CITY           SKY/WX    TMP DP  RH WIND       PRES   REMARKS
ELKHART        CLEAR     36  10  35 E7        30.50S
GOSHEN         CLEAR     33  12  41 E6        30.49F WCI  28
6HR MIN TEMP:  33; 6HR MAX TEMP:  39;

LOGANSPORT +   CLOUDY    32  21  64 E6        30.49S WCI  26
PERU/GRISSOM   MOCLDY    35  17  49 E10       30.46S WCI  27
6HR MIN TEMP:  33; 6HR MAX TEMP:  38;

ROCHESTER +    CLOUDY    36  16  44 E7        30.49S
SOUTH BEND     CLOUDY    35  11  36 E6        30.50S WCI  30
6HR MIN TEMP:  32; 6HR MAX TEMP:  38;

WARSAW +       CLEAR     32  14  47 E6        30.49S WCI  26

$$

INZ006>009-017-018-025>027-230100-
NORTHEAST INDIANA

CITY           SKY/WX    TMP DP  RH WIND       PRES   REMARKS
ANGOLA *+      CLEAR     34  14  44 SE6       30.50R WCI  29
AUBURN +       CLEAR     32  14  47 E5        30.51S WCI  27
FORT WAYNE     MOCLDY    33  15  47 E9        30.50S WCI  25
6HR MIN TEMP:  33; 6HR MAX TEMP:  38;

HUNTINGTON +   CLOUDY    32  15  49 E5        30.49F WCI  28
6HR MIN TEMP:  32; 6HR MAX TEMP:  37;

KENDALLVILLE + CLEAR     32  13  45 E5        30.50S WCI  27

$$

INZ028-029-035-036-043>045-051>053-230100-
WEST CENTRAL INDIANA

CITY           SKY/WX    TMP DP  RH WIND       PRES   REMARKS
CRAWFORDSVL +  CLEAR     34  21  60 NE10      30.45S WCI  26
6HR MIN TEMP:  34; 6HR MAX TEMP:  39;

GREENCASTLE +  PTCLDY    36  18  48 E8        30.44S
LAFAYETTE      CLEAR     35  19  52 E14       30.47S WCI  26
6HR MIN TEMP:  34; 6HR MAX TEMP:  39;

TERRE HAUTE    CLEAR     39  17  41 E10       30.43S
6HR MIN TEMP:  39; 6HR MAX TEMP:  45;


$$

INZ030>032-037>040-046>048-054>057-064-065-230100-
CENTRAL INDIANA

CITY           SKY/WX    TMP DP  RH WIND       PRES   REMARKS
CP ATTERBURY + CLEAR     37  21  52 E9        30.45S
COLUMBUS       CLEAR     37  19  48 NE12      30.46R
FRANKFORT +    CLEAR     37  23  56 E8        30.48S
6HR MIN TEMP:  36; 6HR MAX TEMP:  41;

GREENWOOD *+   CLEAR     38  20  48 E8        30.45S
6HR MIN TEMP:  36; 6HR MAX TEMP:  41;

INDIANAPOLIS   PTCLDY    37  18  46 E12       30.44F
6HR MIN TEMP:  36; 6HR MAX TEMP:  42;

-EAGLE CREEK   CLEAR     37  17  44 E7        30.44F
6HR MIN TEMP:  36; 6HR MAX TEMP:  41;

KOKOMO +       PTCLDY    34  21  59 E9        30.48F WCI  27
6HR MIN TEMP:  32; 6HR MAX TEMP:  38;

MARION +       CLEAR     34  19  55 E9        30.48F WCI  26
MT COMFORT *+  PTCLDY    34  21  60 E12       30.46S WCI  25
SHELBYVILLE    CLEAR     37  20  50 NE12      30.45S
6HR MIN TEMP:  36; 6HR MAX TEMP:  42;

ZIONSVILLE +   CLEAR     34  20  57 E8        30.46S WCI  27
6HR MIN TEMP:  33; 6HR MAX TEMP:  38;


$$

INZ033-034-041-042-049-050-058-059-230100-
EAST CENTRAL INDIANA

CITY           SKY/WX    TMP DP  RH WIND       PRES   REMARKS
MUNCIE         CLEAR     35  21  56 E10       30.47F WCI  27
6HR MIN TEMP:  34; 6HR MAX TEMP:  39;

RICHMOND +     CLEAR     32  21  64 NE8       30.45F WCI  25

$$

INZ060-061-067>069-081>083-085>088-230100-
SOUTHWEST INDIANA

CITY           SKY/WX    TMP DP  RH WIND       PRES   REMARKS
EVANSVILLE     CLEAR     46  20  35 NE9       30.40R
6HR MIN TEMP:  46; 6HR MAX TEMP:  54;

HUNTINGBURG *+ CLEAR     43  18  36 NE10      30.41R
6HR MIN TEMP:  43; 6HR MAX TEMP:  49;

WASHINGTON +   CLEAR     44  13  29 MISG      30.41R
6HR MIN TEMP:  44; 6HR MAX TEMP:  49;


$$

INZ062-063-066-070>080-084-089>092-230100-
SOUTH CENTRAL AND SOUTHEAST INDIANA

CITY           SKY/WX    TMP DP  RH WIND       PRES   REMARKS
BLOOMINGTON    CLEAR     40  17  39 NE9       30.42R
6HR MIN TEMP:  40; 6HR MAX TEMP:  45;

MADISON *+     CLEAR     39  14  35 NE10      30.45R
NORTH VERNON + CLEAR     41  21  45 NE10      30.44S
SEYMOUR +      CLEAR     41  23  48 NE9       30.44

$$




USA.gov is the U.S. government's official web portal to all federal, state and local government web resources and services.